Weather History for Pueblo, CO

Change the Weather History Date:

Saturday, February 11, 2012

  Actual Average Record
Temperature  
Mean Temperature 20 °F 33 °F  
Max Temperature 23 °F 49 °F 77 °F (1962)
Min Temperature 16 °F 16 °F -20 °F (1899)
Degree Days  
Heating Degree Days 45 32  
Month to date heating degree days 394 364  
Since 1 July heating degree days 3614 3796  
Cooling Degree Days 0 0  
Month to date cooling degree days 0 0  
Year to date cooling degree days 0 0  
Moisture  
Dew Point 16 °F    
Average Humidity 90    
Maximum Humidity 100    
Minimum Humidity 80    
Precipitation  
Precipitation 0.03 in 0.01 in 0.25 in (1905)
Month to date precipitation 0.37 0.10  
Year to date precipitation 0.40 0.45  
Snow  
Snow 0.90 in 0.20 in 4.20 in (1995)
Month to date snowfall 3.6 1.7  
Since 1 July snowfall 25.6 19.7  
Snow Depth 0.00 in    
Sea Level Pressure  
Sea Level Pressure 30.39 in    
Wind  
Wind Speed 10 mph (ESE)    
Max Wind Speed 18 mph    
Max Gust Speed 23 mph    
Visibility 4 miles    
Events Snow    
T = Trace of Precipitation, MM = Missing Value Source: NWS Daily Summary

Daily Weather History Graph

Daily Weather History Graph

Search for Another Location

Airport:

Trip Planner

Search our weather history database for the weather conditions in past years. The results will help you decide how hot, cold, wet, or windy it might be!

Date:

Astronomy

Feb. 11, 2012 Rise Set
Actual Time 6:53 AM MST 5:31 PM MST
Civil Twilight 6:26 AM MST 5:58 PM MST
Nautical Twilight 5:55 AM MST 6:29 PM MST
Astronomical Twilight 5:24 AM MST 7:00 PM MST
Moon 10:17 PM MST (2/11) 8:41 AM MST (2/11)
Length of Visible Light 11h 32m
Length of Day
10h 37m
Waning Gibbous, 81% of the Moon is Illuminated
Feb 11
Waning Gibbous
Feb 14
Last Quarter
Feb 21
New
Feb 29
First Quarter
Mar 8
Full

Hourly Weather History & Observations

Time (MST) Temp. Windchill Dew Point Humidity Pressure Visibility Wind Dir Wind Speed Gust Speed Precip Events Conditions
12:25 AM 21.2 °F 6.8 °F 17.6 °F 86% 30.27 in 8.0 mi ESE 17.3 mph - N/A   Overcast
12:53 AM 21.0 °F 6.6 °F 18.0 °F 88% 30.34 in 8.0 mi ESE 17.3 mph - N/A   Overcast
1:53 AM 21.0 °F 9.3 °F 18.0 °F 88% 30.37 in 5.0 mi East 11.5 mph - N/A   Overcast
2:06 AM 21.2 °F 8.9 °F 19.4 °F 93% 30.31 in 3.0 mi ESE 12.7 mph - N/A   Overcast
2:17 AM 19.4 °F 7.9 °F 19.4 °F 100% 30.32 in 2.0 mi East 10.4 mph - N/A   Overcast
2:53 AM 19.9 °F 7.9 °F 19.0 °F 96% 30.39 in 2.0 mi ESE 11.5 mph - N/A   Overcast
3:09 AM 19.4 °F 7.9 °F 19.4 °F 100% 30.33 in 1.8 mi ESE 10.4 mph - N/A   Overcast
3:20 AM 19.4 °F 6.0 °F 19.4 °F 100% 30.34 in 2.0 mi ESE 13.8 mph - N/A   Overcast
3:35 AM 19.4 °F 6.0 °F 19.4 °F 100% 30.35 in 2.0 mi East 13.8 mph - N/A   Overcast
3:53 AM 19.9 °F 6.7 °F 18.0 °F 92% 30.40 in 2.0 mi ESE 13.8 mph - N/A   Overcast
4:27 AM 19.4 °F 5.0 °F 17.6 °F 93% 30.36 in 1.8 mi East 16.1 mph - 0.00 in Snow Light Snow
4:35 AM 19.4 °F 5.0 °F 17.6 °F 93% 30.36 in 2.5 mi East 16.1 mph - 0.00 in   Overcast
4:53 AM 18.0 °F 3.6 °F 16.0 °F 92% 30.44 in 2.5 mi ESE 15.0 mph - 0.00 in   Overcast
5:53 AM 18.0 °F 4.8 °F 16.0 °F 92% 30.46 in 2.0 mi ESE 12.7 mph - 0.01 in Snow Light Snow
6:31 AM 17.6 °F 3.7 °F 15.8 °F 93% 30.38 in 1.5 mi ESE 13.8 mph - 0.00 in Snow Light Snow
6:50 AM 17.6 °F 5.0 °F 15.8 °F 93% 30.38 in 1.5 mi ESE 11.5 mph - 0.00 in Snow Light Snow
6:53 AM 17.1 °F 3.6 °F 14.0 °F 88% 30.49 in 1.5 mi ESE 12.7 mph - 0.00 in Snow Light Snow
7:01 AM 17.6 °F 3.7 °F 14.0 °F 86% 30.38 in 1.5 mi ESE 13.8 mph - 0.00 in Snow Light Snow
7:21 AM 15.8 °F 1.4 °F 12.2 °F 86% 30.38 in 1.2 mi ESE 13.8 mph - 0.00 in Snow Light Snow
7:29 AM 15.8 °F 2.7 °F 12.2 °F 86% 30.38 in 1.2 mi ESE 11.5 mph - 0.00 in Snow Light Snow
7:53 AM 16.0 °F 2.9 °F 12.9 °F 88% 30.51 in 0.8 mi ESE 11.5 mph - 0.01 in Snow Light Snow
8:16 AM 15.8 °F 2.7 °F 12.2 °F 86% 30.39 in 0.8 mi ESE 11.5 mph - 0.00 in Snow Light Snow
8:53 AM 16.0 °F 2.9 °F 12.9 °F 88% 30.53 in 0.8 mi ESE 11.5 mph - 0.00 in Snow Light Snow
9:00 AM 15.8 °F 2.7 °F 12.2 °F 86% 30.39 in 1.0 mi ESE 11.5 mph - 0.00 in Snow Light Snow
9:14 AM 15.8 °F 2.1 °F 12.2 °F 86% 30.39 in 1.8 mi SE 12.7 mph - 0.00 in Snow Light Snow
9:23 AM 15.8 °F 2.7 °F 10.4 °F 79% 30.40 in 2.0 mi ESE 11.5 mph - 0.00 in Snow Light Snow
9:53 AM 16.0 °F 2.3 °F 12.0 °F 84% 30.54 in 1.5 mi ESE 12.7 mph - 0.00 in Snow Light Snow
10:46 AM 17.6 °F 5.7 °F 12.2 °F 79% 30.38 in 2.0 mi SE 10.4 mph - 0.01 in Snow Light Snow
10:53 AM 17.1 °F 5.8 °F 12.9 °F 84% 30.53 in 2.5 mi ESE 9.2 mph - 0.01 in Snow Light Snow
11:03 AM 17.6 °F 5.7 °F 14.0 °F 86% 30.38 in 3.0 mi ESE 10.4 mph - 0.00 in Snow Light Snow
11:51 AM 19.4 °F 9.5 °F 14.0 °F 80% 30.36 in 7.0 mi ESE 8.1 mph - 0.00 in   Overcast
11:53 AM 19.0 °F 9.0 °F 15.1 °F 85% 30.51 in 8.0 mi ESE 8.1 mph - 0.00 in   Overcast
12:03 PM 19.4 °F 10.4 °F 15.8 °F 86% 30.35 in 5.0 mi East 6.9 mph - 0.00 in Snow Light Snow
12:31 PM 19.4 °F 9.5 °F 15.8 °F 86% 30.34 in 2.5 mi East 8.1 mph - 0.00 in Snow Light Snow
12:53 PM 19.9 °F 13.4 °F 15.1 °F 81% 30.47 in 2.0 mi ESE 4.6 mph - 0.00 in Snow Light Snow
1:10 PM 19.4 °F 9.5 °F 15.8 °F 86% 30.31 in 3.0 mi SE 8.1 mph - 0.00 in Snow Light Snow
1:53 PM 19.0 °F 8.2 °F 16.0 °F 88% 30.45 in 4.0 mi ESE 9.2 mph - 0.00 in Snow Light Snow
2:34 PM 19.4 °F 9.5 °F 15.8 °F 86% 30.29 in 2.0 mi ESE 8.1 mph - 0.00 in Snow Light Snow
2:53 PM 19.9 °F 8.6 °F 16.0 °F 85% 30.44 in 3.0 mi ESE 10.4 mph - 0.00 in Snow Light Snow
3:32 PM 19.4 °F 7.9 °F 15.8 °F 86% 30.29 in 2.0 mi East 10.4 mph - 0.00 in Snow Light Snow
3:53 PM 19.9 °F 8.6 °F 15.1 °F 81% 30.43 in 3.0 mi East 10.4 mph - 0.00 in Snow Light Snow
4:53 PM 19.0 °F 7.5 °F 15.1 °F 85% 30.45 in 6.0 mi ESE 10.4 mph - 0.00 in Snow Light Snow
5:53 PM 19.0 °F 7.5 °F 15.1 °F 85% 30.45 in 10.0 mi ESE 10.4 mph - 0.00 in   Overcast
6:53 PM 19.0 °F 7.5 °F 16.0 °F 88% 30.46 in 8.0 mi East 10.4 mph - N/A   Overcast
7:01 PM 19.4 °F 7.9 °F 15.8 °F 86% 30.30 in 9.0 mi East 10.4 mph - N/A   Overcast
7:53 PM 19.0 °F 9.0 °F 16.0 °F 88% 30.45 in 7.0 mi East 8.1 mph - N/A   Overcast
8:53 PM 19.0 °F 10.0 °F 17.1 °F 92% 30.43 in 6.0 mi East 6.9 mph - N/A   Overcast
9:53 PM 19.0 °F 10.0 °F 17.1 °F 92% 30.41 in 6.0 mi ESE 6.9 mph - N/A   Overcast
10:53 PM 19.0 °F 13.9 °F 17.1 °F 92% 30.38 in 8.0 mi East 3.5 mph - N/A   Overcast
11:17 PM 19.4 °F 12.8 °F 15.8 °F 86% 30.22 in 8.0 mi ESE 4.6 mph - N/A   Overcast
11:53 PM 19.9 °F 14.9 °F 17.1 °F 89% 30.35 in 8.0 mi East 3.5 mph - N/A   Overcast